Temperature
7 6 6 5 5 5 4 4 4 3 3 3 2 2 2 1 1 1 1 1 0 0 0 -0 -0 -0 -0 -0 -1 -1 -1 -1 -1 -1 -1 -1 -1 -1 -1 -1 -0 -0 -0
6 6 5 5 5 4 4 3 3 3 2 2 1 1 1 1 0 0 -0 -0 -0 -1 -1 -1 -1 -1 -1 -1 -1 -1 -1 -1 -2 -2 -2 -2 -2 -2 -2 -2 -1 -1 -1
5 5 5 4 4 3 3 3 2 2 1 1 1 0 0 -0 -0 -1 -1 -1 -1 -1 -2 -2 -2 -2 -2 -2 -2 -2 -2 -2 -2 -2 -2 -2 -2 -2 -2 -2 -2 -2 -2
5 4 4 4 3 3 2 2 1 1 1 0 -0 -0 -1 -1 -1 -1 -2 -2 -2 -2 -2 -2 -3 -3 -3 -3 -3 -3 -3 -3 -3 -3 -3 -3 -3 -3 -3 -3 -3 -2 -2
4 4 3 3 2 2 2 1 1 0 -0 -1 -1 -1 -1 -1 -2 -2 -2 -2 -2 -3 -3 -3 -3 -3 -3 -3 -3 -3 -3 -3 -3 -3 -3 -3 -3 -3 -3 -3 -3 -3 -3
3 3 3 2 2 1 1 1 0 -0 -1 -1 -1 -2 -2 -2 -2 -3 -3 -3 -3 -3 -3 -3 -4 -4 -4 -4 -4 -3 -3 -3 -3 -3 -3 -3 -3 -3 -3 -3 -3 -3 -3
3 2 2 1 1 1 0 -0 -1 -1 -1 -2 -2 -2 -3 -3 -3 -3 -3 -3 -4 -4 -4 -4 -4 -4 -5 -5 -4 -4 -4 -4 -4 -4 -4 -3 -3 -3 -3 -3 -3 -4 -3
2 2 1 1 0 -0 -0 -1 -1 -2 -2 -2 -3 -3 -3 -3 -4 -4 -4 -4 -4 -4 -4 -4 -5 -5 -5 -5 -5 -5 -4 -4 -4 -4 -4 -4 -4 -4 -4 -4 -4 -4 -4
1 1 1 0 -0 -1 -1 -2 -2 -2 -3 -3 -3 -4 -4 -4 -4 -4 -4 -5 -5 -5 -5 -5 -5 -5 -5 -5 -5 -5 -5 -4 -4 -4 -4 -4 -4 -4 -4 -4 -4 -4 -4
1 0 0 -0 -1 -1 -2 -2 -2 -3 -3 -3 -4 -4 -4 -4 -5 -5 -5 -5 -5 -5 -5 -5 -5 -5 -5 -5 -5 -5 -5 -5 -5 -4 -4 -4 -4 -4 -4 -4 -4 -4 -4
0 -0 -1 -1 -2 -2 -2 -3 -3 -3 -4 -4 -4 -5 -5 -5 -5 -5 -5 -5 -5 -5 -5 -5 -5 -6 -6 -5 -5 -5 -5 -5 -5 -5 -5 -4 -4 -4 -4 -4 -4 -5 -5
-0 -1 -1 -2 -2 -3 -3 -3 -4 -4 -4 -5 -5 -5 -5 -5 -6 -6 -6 -6 -6 -6 -6 -6 -6 -6 -6 -6 -5 -5 -5 -5 -5 -5 -5 -5 -5 -5 -5 -5 -5 -5 -5
-1 -1 -2 -2 -3 -3 -4 -4 -4 -5 -5 -5 -5 -6 -6 -6 -6 -6 -6 -6 -6 -6 -6 -6 -6 -6 -6 -6 -6 -6 -6 -6 -6 -6 -6 -6 -5 -5 -5 -5 -5 -5 -5
-2 -2 -3 -3 -3 -4 -4 -5 -5 -5 -5 -6 -6 -6 -6 -6 -6 -6 -6 -6 -6 -6 -6 -6 -6 -6 -6 -7 -7 -6 -6 -6 -6 -6 -6 -6 -6 -6 -6 -6 -6 -6 -6
-2 -3 -3 -4 -4 -5 -5 -5 -5 -6 -6 -6 -6 -6 -6 -6 -6 -6 -6 -6 -6 -6 -6 -6 -7 -7 -7 -7 -7 -7 -7 -7 -7 -7 -7 -7 -7 -6 -6 -6 -6 -6 -6
-3 -3 -4 -4 -5 -5 -6 -6 -6 -6 -6 -6 -6 -6 -7 -7 -7 -7 -7 -7 -7 -7 -7 -7 -7 -7 -7 -7 -7 -7 -7 -7 -7 -7 -7 -7 -7 -7 -7 -7 -7 -7 -7
-4 -4 -5 -5 -5 -6 -6 -7 -7 -6 -6 -7 -7 -7 -7 -7 -7 -7 -7 -7 -7 -7 -7 -7 -8 -8 -8 -8 -8 -8 -8 -8 -8 -8 -7 -7 -7 -7 -7 -7 -7 -7 -7
-4 -5 -5 -6 -6 -6 -7 -7 -7 -7 -7 -7 -7 -7 -7 -7 -7 -8 -8 -8 -8 -8 -8 -8 -8 -8 -8 -8 -8 -8 -8 -8 -8 -8 -8 -8 -8 -8 -8 -8 -8 -8 -7
-5 -5 -6 -6 -6 -7 -7 -7 -8 -8 -8 -8 -8 -7 -8 -8 -8 -8 -8 -8 -8 -8 -8 -8 -8 -8 -8 -9 -9 -9 -8 -8 -8 -8 -8 -8 -8 -8 -8 -8 -8 -8 -8
-5 -6 -6 -7 -7 -7 -7 -8 -8 -8 -8 -8 -8 -8 -8 -9 -9 -8 -9 -9 -9 -9 -9 -9 -9 -9 -9 -9 -9 -9 -9 -9 -9 -9 -9 -9 -9 -9 -9 -8 -8 -8 -8
-6 -7 -7 -7 -8 -8 -8 -8 -8 -8 -8 -8 -9 -9 -9 -9 -9 -9 -9 -9 -9 -9 -9 -9 -9 -9 -9 -9 -9 -9 -9 -9 -9 -9 -9 -9 -9 -9 -9 -9 -9 -8 -8
-7 -7 -8 -8 -8 -8 -8 -8 -8 -8 -9 -9 -9 -9 -9 -9 -10 -10 -10 -10 -9 -9 -9 -9 -9 -9 -9 -9 -9 -9 -9 -9 -9 -9 -9 -9 -9 -9 -9 -9 -9 -9 -9
-7 -8 -8 -8 -8 -8 -8 -9 -9 -9 -9 -9 -9 -10 -10 -10 -10 -10 -10 -10 -10 -10 -9 -9 -9 -9 -9 -9 -9 -9 -10 -9 -9 -9 -9 -9 -9 -9 -9 -9 -9 -9 -9
-8 -8 -8 -8 -9 -9 -9 -9 -9 -9 -10 -10 -10 -10 -10 -10 -10 -10 -10 -10 -10 -10 -10 -10 -10 -10 -10 -10 -9 -9 -9 -9 -9 -9 -10 -10 -10 -10 -10 -10 -10 -10 -10
-8 -8 -9 -9 -9 -9 -9 -9 -10 -10 -10 -10 -10 -11 -11 -11 -11 -11 -11 -11 -11 -10 -10 -10 -10 -10 -10 -9 -9 -9 -9 -9 -9 -10 -10 -10 -10 -10 -10 -10 -10 -10 -10
-8 -9 -9 -9 -9 -10 -10 -10 -10 -10 -11 -11 -11 -11 -11 -11 -11 -11 -11 -11 -11 -11 -10 -10 -10 -10 -10 -10 -9 -9 -9 -9 -10 -10 -10 -10 -10 -10 -10 -10 -10 -10 -10
Wind_Speed
3 4 5 6 6 7 7 8 8 8 9 9 9 10 10 10 10 10 10 11 11 11 11 11 12 11 9 8 9 9 10 11 18 16 8 8 10 11 12 12 15 13 16
3 4 6 7 7 8 8 9 9 9 9 10 10 11 11 11 11 11 12 12 11 12 11 11 12 11 11 10 9 11 11 11 14 20 13 8 10 10 10 11 11 12 11
3 5 7 7 8 8 9 9 9 10 10 10 11 11 11 11 11 12 12 12 12 12 12 12 12 12 13 11 11 12 11 12 11 15 17 10 9 9 11 11 13 11 12
4 6 7 8 8 9 9 9 10 10 10 11 11 11 12 12 12 12 12 12 12 12 12 13 13 13 14 14 14 14 13 13 12 14 16 13 11 9 9 10 11 10 12
5 7 8 8 9 9 10 10 10 10 11 11 12 13 12 12 12 12 11 12 12 13 13 13 14 19 23 21 17 13 13 14 14 14 15 14 12 9 10 9 13 10 10
6 8 9 9 10 10 10 10 10 10 11 11 12 13 13 12 20 25 21 13 11 12 13 13 14 18 22 27 29 28 24 18 15 14 15 15 14 12 11 11 11 12 12
8 9 10 10 10 10 10 10 11 11 11 12 12 13 13 14 24 28 27 18 12 12 13 13 14 15 21 14 21 27 25 29 27 19 17 16 14 11 11 13 12 13 14
9 10 10 10 10 10 10 11 12 11 11 11 12 13 13 16 26 28 28 17 12 12 12 13 14 14 15 17 14 14 15 16 19 16 14 14 14 12 12 14 14 14 13
9 10 9 9 10 11 12 12 12 11 11 11 12 13 13 16 25 27 27 12 11 12 12 13 14 13 22 26 18 15 16 14 20 25 25 24 26 26 20 12 11 11 12
9 9 9 10 11 12 13 13 11 11 12 12 12 12 14 14 22 26 27 11 11 11 11 11 19 21 25 26 16 14 16 15 13 14 17 19 17 18 22 13 9 11 9
9 10 10 10 11 12 12 11 11 11 12 12 13 12 12 15 20 25 26 13 10 12 12 10 10 23 26 27 23 15 19 19 13 12 12 11 10 9 10 9 9 10 11
10 10 11 11 11 11 12 11 11 11 12 12 13 13 10 11 17 21 26 25 22 14 12 10 12 25 27 28 22 21 27 23 10 10 10 9 8 8 8 8 9 11 11
10 11 11 12 11 10 11 12 11 10 10 11 11 13 12 9 12 24 26 26 26 17 13 21 25 28 27 19 21 26 21 11 9 10 9 9 7 7 7 6 7 8 8
11 11 11 11 11 10 10 9 10 10 11 11 12 14 14 12 10 9 10 14 18 17 14 19 25 25 20 20 18 15 9 9 9 9 8 7 6 6 7 6 6 6 6
11 11 10 10 11 11 10 10 11 10 14 16 13 13 15 15 16 24 20 13 12 14 16 12 9 9 8 8 8 9 8 8 9 7 7 7 7 7 6 5 5 5 6
10 10 9 10 10 10 11 13 17 19 26 27 26 24 19 23 29 30 29 28 28 26 19 10 10 10 10 9 9 8 7 8 7 7 7 7 7 7 6 5 5 6 7
11 11 10 10 11 11 11 12 15 17 22 25 26 27 26 28 29 29 28 27 26 24 13 9 10 10 9 9 8 8 9 8 7 7 7 7 6 6 6 5 5 6 7
11 13 13 10 10 11 11 12 13 15 16 13 17 24 27 27 27 27 27 23 14 12 8 9 10 10 9 9 8 8 8 8 7 7 6 6 6 6 6 6 6 7 7
11 10 10 10 10 11 12 12 13 14 15 15 13 15 22 23 25 25 22 12 11 11 9 9 10 9 9 9 8 8 8 8 8 7 6 6 6 6 7 6 6 10 8
10 18 18 13 11 12 12 13 13 13 14 14 14 13 12 14 12 13 11 10 11 11 10 10 9 9 9 9 8 8 8 8 7 7 6 6 6 6 7 7 7 6 7
10 13 21 16 12 12 13 13 13 13 13 13 13 16 23 15 12 12 12 11 11 11 11 10 10 9 9 8 8 9 9 8 7 7 7 7 6 6 6 6 7 7 6
10 10 11 12 13 12 13 13 13 13 13 14 13 15 24 14 11 12 12 12 11 10 10 10 10 9 9 8 8 9 9 9 8 7 7 7 6 7 7 7 7 6 6
10 12 13 13 13 17 17 12 12 12 13 13 13 14 13 12 12 12 13 12 11 11 10 9 10 10 9 8 8 9 9 9 8 8 8 7 7 7 7 7 8 8 8
11 13 14 14 13 13 13 13 12 13 13 13 13 13 13 12 13 14 13 12 11 11 11 10 10 12 13 11 9 9 9 10 9 8 9 9 9 8 8 8 8 9 9
11 13 14 13 14 13 13 13 13 13 13 13 13 13 13 13 13 13 13 12 12 12 13 12 10 11 13 14 13 12 16 19 18 12 9 9 10 10 9 9 9 9 9
12 13 13 13 12 13 13 13 13 13 13 13 13 12 13 13 13 13 13 13 12 11 12 11 12 14 15 13 15 18 21 21 20 19 12 9 10 10 10 9 11 10 10
Wind_Direction
315 314 311 305 302 298 293 290 291 292 293 292 290 289 287 285 282 280 279 278 275 274 271 271 269 267 266 262 259 259 258 258 271 278 265 258 259 264 271 270 270 266 264
307 308 302 299 300 297 295 296 298 297 295 293 290 287 286 287 285 284 284 283 281 281 279 278 279 279 274 272 267 263 263 259 265 276 277 265 257 259 261 262 267 267 258
307 302 299 299 298 295 295 296 297 295 292 290 289 288 288 286 284 281 279 279 278 279 281 281 281 281 279 276 271 270 268 268 262 270 276 271 262 257 261 262 261 261 261
300 295 292 290 290 290 291 291 289 289 289 289 287 287 286 284 282 280 278 277 277 278 278 277 277 276 276 275 274 271 269 266 263 265 271 271 266 255 252 258 262 254 258
295 292 288 287 287 286 285 284 285 285 287 287 287 286 283 284 283 282 280 278 277 278 277 275 275 277 277 280 279 274 267 266 265 264 267 269 265 258 253 251 258 259 255
295 291 289 287 285 282 282 284 285 286 286 287 287 288 287 289 293 295 296 287 281 281 283 281 281 282 283 285 285 286 283 278 275 271 271 268 267 261 257 255 258 261 263
289 286 286 286 286 286 289 291 290 289 288 288 288 288 288 289 295 298 299 297 288 285 284 284 287 286 289 283 284 285 284 282 279 277 275 273 273 266 260 261 258 259 261
286 286 287 289 293 296 296 294 292 290 289 289 290 289 290 292 298 300 301 298 288 283 280 279 280 281 281 284 280 277 274 274 274 274 267 267 267 264 253 256 260 261 261
287 288 292 299 301 300 297 293 292 292 291 289 289 289 290 293 297 300 300 292 287 284 282 281 283 282 285 290 288 283 281 277 278 275 271 269 268 267 263 257 251 254 260
290 294 298 298 296 295 293 292 292 292 291 291 291 290 290 291 298 302 302 294 289 288 285 279 285 288 290 292 289 283 285 284 279 278 274 272 272 271 270 257 251 258 262
297 298 296 293 292 291 291 291 292 293 293 293 293 291 289 291 300 301 301 298 288 289 290 288 282 291 293 294 293 286 283 286 280 275 272 266 261 257 255 248 238 243 252
298 297 295 293 295 297 294 294 293 295 296 296 295 293 289 290 295 297 299 299 300 295 293 291 286 293 294 295 295 290 291 294 287 283 276 270 264 259 251 244 241 240 239
297 295 295 296 294 293 294 296 297 295 295 296 296 296 296 289 291 297 300 300 300 297 290 292 295 298 300 299 294 294 295 290 282 278 275 272 263 259 254 251 246 242 243
296 296 296 298 297 295 294 294 295 295 295 295 296 297 297 294 290 287 285 291 294 294 292 291 294 296 295 291 292 292 283 274 277 274 274 273 270 264 258 247 245 241 244
294 295 297 296 296 298 294 291 293 286 289 296 294 293 297 298 296 300 301 297 293 289 296 292 289 290 286 283 283 282 277 276 278 268 268 270 272 269 262 247 240 238 237
296 296 296 296 296 296 297 298 293 293 297 298 297 297 297 297 302 304 304 304 304 302 302 295 294 290 289 289 290 291 286 282 276 269 265 266 269 265 260 248 240 240 244
291 294 296 294 296 296 297 299 301 301 298 299 299 300 302 304 306 307 307 306 305 305 299 292 290 288 288 287 287 288 287 282 278 274 269 266 266 264 261 253 246 244 245
293 296 298 293 293 294 294 294 296 299 302 300 299 301 304 306 308 308 309 310 303 298 283 284 286 286 286 285 285 286 287 284 279 275 269 264 260 262 260 254 247 245 246
295 294 292 290 290 291 292 293 294 294 296 298 300 302 305 307 308 306 308 300 295 293 288 284 284 284 284 284 283 282 282 281 278 273 268 262 259 258 257 253 248 251 249
293 295 300 297 295 294 293 294 294 295 296 297 299 302 305 305 303 303 301 293 289 288 287 286 285 283 283 281 280 279 279 277 276 272 268 263 258 255 256 251 247 248 247
292 296 299 298 293 292 292 292 293 294 295 297 297 300 305 306 303 301 300 296 290 289 288 286 286 284 282 279 277 276 274 273 270 268 265 262 257 256 254 250 246 244 244
292 293 294 293 293 292 293 292 293 294 295 295 297 301 305 303 298 297 297 295 292 289 286 285 285 282 278 277 277 277 276 274 270 266 263 259 255 254 253 249 247 242 239
292 294 295 294 293 296 298 294 293 294 295 295 298 301 301 299 298 298 297 296 293 292 288 283 283 282 277 274 273 273 274 273 270 266 262 259 255 253 252 249 247 245 242
293 294 295 296 296 295 294 295 295 295 296 296 298 299 300 298 298 298 298 296 294 292 291 287 282 279 278 278 277 272 268 268 268 263 253 254 254 253 250 249 246 244 242
295 295 296 296 296 296 295 295 295 296 297 299 300 300 301 300 299 299 299 297 294 292 292 291 286 282 279 277 276 272 273 274 274 269 256 252 251 248 248 248 245 243 239
297 296 297 297 296 295 295 295 296 298 298 299 299 299 300 300 300 300 300 298 296 295 295 293 287 285 283 281 277 276 278 277 276 273 263 253 248 247 244 245 242 240 240
Height
1516 1514 1512 1509 1506 1503 1500 1496 1493 1489 1486 1482 1478 1474 1470 1466 1463 1459 1455 1452 1448 1445 1442 1439 1435 1433 1430 1428 1426 1423 1421 1418 1409 1401 1402 1403 1403 1402 1402 1401 1400 1399 1398
1512 1510 1507 1504 1501 1498 1494 1491 1487 1483 1479 1475 1471 1466 1462 1458 1455 1451 1446 1443 1439 1435 1433 1430 1426 1424 1420 1418 1415 1412 1410 1408 1404 1395 1391 1392 1392 1392 1391 1390 1389 1388 1387
1507 1505 1502 1499 1495 1492 1488 1484 1480 1476 1471 1467 1463 1459 1454 1450 1446 1442 1438 1434 1430 1427 1423 1420 1417 1414 1410 1408 1405 1402 1399 1397 1394 1389 1383 1382 1381 1381 1380 1379 1378 1377 1377
1502 1499 1496 1493 1489 1485 1481 1477 1473 1469 1464 1460 1455 1451 1446 1442 1438 1434 1429 1425 1421 1417 1414 1410 1407 1404 1400 1397 1394 1391 1389 1386 1383 1380 1375 1372 1371 1370 1370 1368 1366 1366 1365
1497 1494 1491 1487 1483 1479 1474 1470 1466 1461 1457 1452 1447 1443 1438 1434 1430 1426 1421 1416 1412 1407 1403 1400 1397 1394 1391 1388 1385 1381 1379 1375 1372 1369 1365 1363 1361 1361 1360 1359 1357 1355 1354
1492 1488 1485 1481 1476 1472 1468 1463 1459 1454 1449 1445 1440 1435 1430 1426 1422 1418 1414 1408 1403 1398 1394 1390 1387 1384 1381 1378 1375 1372 1370 1367 1363 1360 1356 1353 1351 1351 1350 1349 1348 1346 1343
1486 1483 1479 1475 1470 1466 1461 1456 1451 1446 1441 1436 1431 1427 1422 1417 1414 1409 1405 1400 1394 1389 1385 1381 1377 1374 1372 1368 1364 1361 1359 1356 1355 1352 1347 1344 1343 1342 1342 1340 1339 1337 1334
1481 1477 1473 1469 1464 1459 1454 1449 1444 1439 1434 1428 1423 1419 1413 1409 1405 1400 1396 1391 1385 1381 1377 1373 1369 1364 1362 1359 1354 1350 1347 1345 1343 1341 1338 1335 1334 1333 1332 1331 1329 1327 1326
1475 1471 1467 1463 1457 1452 1447 1441 1436 1431 1425 1420 1415 1410 1405 1400 1396 1392 1387 1382 1376 1372 1368 1364 1361 1356 1353 1351 1347 1342 1337 1334 1333 1330 1328 1326 1324 1323 1323 1321 1319 1318 1316
1469 1465 1461 1456 1450 1445 1439 1434 1429 1423 1417 1412 1406 1402 1397 1392 1388 1384 1380 1374 1368 1363 1359 1355 1353 1349 1345 1342 1339 1334 1329 1325 1323 1320 1318 1316 1314 1313 1313 1313 1311 1310 1308
1463 1458 1454 1449 1443 1438 1432 1427 1421 1415 1410 1404 1398 1393 1389 1384 1379 1375 1372 1367 1361 1356 1351 1347 1343 1341 1337 1334 1331 1326 1322 1318 1314 1311 1308 1306 1304 1303 1302 1302 1302 1302 1301
1456 1451 1446 1441 1436 1430 1424 1419 1414 1408 1402 1396 1390 1384 1380 1376 1372 1367 1363 1360 1355 1349 1343 1339 1335 1332 1328 1325 1321 1317 1314 1310 1306 1303 1300 1297 1296 1295 1294 1293 1293 1292 1292
1448 1443 1438 1433 1428 1423 1417 1411 1406 1401 1395 1388 1383 1376 1370 1366 1363 1359 1355 1351 1346 1342 1336 1332 1328 1324 1320 1315 1311 1308 1305 1302 1298 1295 1292 1290 1289 1287 1286 1285 1285 1284 1284
1441 1436 1430 1425 1419 1414 1410 1404 1399 1393 1387 1381 1375 1369 1363 1358 1354 1349 1345 1341 1337 1332 1328 1323 1319 1315 1311 1306 1303 1299 1296 1294 1291 1288 1285 1283 1282 1280 1279 1278 1278 1278 1277
1434 1428 1423 1417 1412 1406 1401 1397 1391 1386 1382 1376 1369 1364 1357 1350 1346 1343 1339 1333 1329 1324 1320 1315 1310 1306 1302 1298 1295 1292 1289 1286 1284 1281 1279 1277 1275 1274 1273 1272 1272 1272 1272
1426 1420 1415 1410 1404 1399 1393 1387 1382 1379 1373 1369 1363 1358 1351 1346 1340 1335 1331 1326 1321 1317 1313 1307 1303 1299 1295 1291 1288 1285 1282 1280 1277 1275 1273 1271 1270 1268 1267 1267 1266 1266 1266
1419 1413 1408 1402 1397 1391 1386 1379 1372 1366 1363 1359 1354 1349 1344 1338 1333 1327 1323 1318 1313 1310 1305 1300 1296 1292 1289 1285 1282 1279 1276 1273 1271 1269 1267 1265 1264 1263 1262 1261 1261 1260 1260
1412 1406 1401 1395 1390 1384 1379 1373 1367 1360 1353 1347 1344 1340 1336 1331 1325 1320 1315 1310 1305 1301 1298 1294 1290 1286 1282 1279 1276 1273 1270 1267 1265 1263 1261 1259 1258 1257 1256 1255 1255 1255 1255
1404 1398 1393 1387 1382 1377 1371 1366 1360 1354 1347 1341 1335 1330 1327 1322 1317 1312 1308 1304 1298 1294 1290 1287 1283 1279 1276 1273 1270 1267 1264 1261 1259 1257 1255 1254 1253 1252 1251 1250 1249 1249 1249
1396 1391 1386 1380 1374 1369 1364 1358 1353 1347 1341 1335 1329 1324 1319 1314 1308 1304 1300 1296 1292 1287 1284 1280 1276 1273 1269 1266 1263 1260 1257 1255 1253 1251 1249 1248 1247 1246 1245 1244 1244 1243 1243
1387 1382 1377 1372 1367 1361 1356 1351 1345 1340 1334 1328 1323 1318 1314 1309 1302 1297 1293 1289 1285 1281 1277 1273 1269 1265 1262 1259 1256 1253 1251 1249 1247 1245 1243 1242 1241 1240 1239 1238 1238 1237 1237
1380 1374 1369 1364 1359 1354 1348 1343 1338 1332 1327 1321 1315 1310 1306 1301 1295 1290 1286 1281 1277 1273 1270 1266 1262 1258 1255 1252 1249 1247 1244 1242 1240 1238 1237 1235 1234 1233 1233 1232 1231 1231 1231
1372 1367 1361 1356 1351 1346 1341 1335 1330 1325 1319 1314 1309 1303 1298 1293 1288 1283 1278 1274 1270 1265 1262 1258 1254 1250 1248 1245 1242 1240 1237 1235 1233 1231 1230 1228 1227 1226 1226 1225 1225 1224 1224
1365 1359 1354 1348 1343 1338 1332 1327 1322 1317 1312 1307 1301 1296 1291 1286 1281 1276 1271 1266 1262 1258 1254 1251 1247 1243 1240 1237 1234 1232 1229 1227 1225 1224 1222 1221 1220 1219 1218 1218 1217 1217 1217
1357 1351 1346 1341 1335 1330 1325 1319 1314 1309 1304 1299 1294 1289 1284 1278 1273 1268 1263 1259 1254 1250 1246 1243 1239 1235 1232 1229 1226 1223 1221 1219 1217 1216 1214 1213 1212 1211 1210 1210 1209 1209 1209
1349 1343 1338 1333 1328 1323 1317 1312 1307 1302 1297 1292 1287 1281 1276 1271 1266 1261 1256 1251 1247 1243 1239 1235 1231 1227 1224 1220 1217 1214 1212 1210 1208 1207 1207 1205 1203 1202 1202 1201 1201 1201 1201